Location: DARK SKY Beskydy - Park tmavé oblohy, www.darkskybeskydy.cz
(49.4926°N, 18.5016°E)
Time: 06:07:13
(UTC+02:00)

TIGRISAT - Pass Details

Date: 08 August 2024
Orbit: 591 x 667 km, 97.7° (Epoch: 19 September)

Event Time Altitude Azimuth Distance (km) Brightness Sun altitude
Rises 04:26:06 0° 167° (SSE) 2,940 ? -9.2°
Reaches altitude 10° 04:28:20 10° 169° (SSE) 2,023 ? -9.0°
Maximum altitude 04:32:45 81° 257° (WSW) 641 ? -8.4°
Drops below altitude 10° 04:37:05 10° 345° (NNW) 1,990 ? -7.8°
Sets 04:39:15 0° 346° (NNW) 2,889 ? -7.5°
